• In Portugal
  • List of Countries
  • For 7 days
  • Water Temperature
  • Satellite Maps
  • Weather Map
  • Weather Widgets
  • user-avatar
    Login

    Hourly Weather Teolin

    Today, 16 November, Friday

    Time Temperature Precipitation Wind Pressure Humidity
    00:00 +1°C° 0 mm 1 mps 762 mmHg 92%
    01:00 0°C° 0 mm 1 mps 763 mmHg 91%
    02:00 -1°C° 0 mm 1 mps 763 mmHg 87%
    03:00 -1°C° 0 mm 1 mps 763 mmHg 86%
    04:00 -2°C° 0 mm 1 mps 764 mmHg 85%
    05:00 -2°C° 0 mm 1 mps 764 mmHg 85%
    06:00 -2°C° 0 mm 1 mps 764 mmHg 83%
    07:00 -5°C° 0 mm 2 mps 764 mmHg 82%
    08:00 -5°C° 0 mm 2 mps 765 mmHg 81%
    09:00 -2°C° 0 mm 1 mps 765 mmHg 78%
    10:00 -1°C° 0 mm 1 mps 765 mmHg 75%
    11:00 +1°C° 0 mm 1 mps 765 mmHg 71%
    12:00 +1°C° 0 mm 1 mps 765 mmHg 73%
    13:00 +1°C° 0 mm 1 mps 766 mmHg 74%
    14:00 +1°C° 0 mm 1 mps 766 mmHg 76%
    15:00 0°C° 0 mm 1 mps 766 mmHg 76%
    16:00 -1°C° 0 mm 1 mps 766 mmHg 76%
    17:00 -2°C° 0 mm 1 mps 766 mmHg 76%
    18:00 -2°C° 0 mm 1 mps 766 mmHg 74%
    19:00 -2°C° 0 mm 1 mps 766 mmHg 73%
    20:00 -2°C° 0 mm 1 mps 766 mmHg 72%
    21:00 -3°C° 0 mm 1 mps 766 mmHg 71%
    22:00 -3°C° 0 mm 1 mps 766 mmHg 69%
    23:00 -3°C° 0 mm 1 mps 766 mmHg 67%

    Tomorrow, 17 November, Saturday

    Time Temperature Precipitation Wind Pressure Humidity
    00:00 -3°C° 0 mm 1 mps 766 mmHg 66%
    01:00 -3°C° 0 mm 1 mps 766 mmHg 64%
    02:00 -4°C° 0 mm 0 mps 766 mmHg 62%
    03:00 -4°C° 0 mm 0 mps 766 mmHg 61%
    04:00 -4°C° 0 mm 0 mps 765 mmHg 61%
    05:00 -4°C° 0 mm 0 mps 765 mmHg 60%
    06:00 -3°C° 0 mm 1 mps 765 mmHg 60%
    07:00 -3°C° 0 mm 1 mps 765 mmHg 60%
    08:00 -3°C° 0 mm 1 mps 764 mmHg 60%
    09:00 -2°C° 0 mm 1 mps 764 mmHg 61%
    10:00 -1°C° 0 mm 1 mps 764 mmHg 61%
    11:00 0°C° 0 mm 1 mps 763 mmHg 61%
    12:00 -1°C° 0 mm 2 mps 763 mmHg 64%
    13:00 -1°C° 0 mm 2 mps 762 mmHg 66%
    14:00 -1°C° 0 mm 2 mps 762 mmHg 69%
    15:00 -1°C° 0 mm 2 mps 761 mmHg 70%
    16:00 -2°C° 0 mm 3 mps 760 mmHg 71%
    17:00 -2°C° 0 mm 3 mps 760 mmHg 72%
    18:00 -2°C° 0 mm 3 mps 759 mmHg 74%
    19:00 -2°C° 0 mm 3 mps 758 mmHg 75%
    20:00 -2°C° 0 mm 3 mps 758 mmHg 77%
    21:00 -2°C° 0 mm 3 mps 757 mmHg 81%
    22:00 -3°C° 0 mm 4 mps 756 mmHg 84%
    23:00 -3°C° 0 mm 4 mps 756 mmHg 88%

    Day after tomorrow, 18 November, Sunday

    Time Temperature Precipitation Wind Pressure Humidity
    00:00 -3°C° 0 mm 4 mps 755 mmHg 90%
    01:00 -2°C° 0 mm 4 mps 754 mmHg 92%
    02:00 -2°C° 0 mm 4 mps 753 mmHg 93%
    03:00 -2°C° 0.1 mm 4 mps 752 mmHg 94%
    04:00 -1°C° 0.1 mm 4 mps 751 mmHg 95%
    05:00 -1°C° 0.1 mm 4 mps 750 mmHg 96%
    06:00 -1°C° 0.1 mm 4 mps 750 mmHg 96%
    07:00 -1°C° 0.1 mm 4 mps 749 mmHg 97%
    08:00 0°C° 0.1 mm 3 mps 749 mmHg 97%
    09:00 +1°C° 0.2 mm 3 mps 749 mmHg 98%
    10:00 +1°C° 0.2 mm 3 mps 748 mmHg 98%
    11:00 +1°C° 0.2 mm 3 mps 748 mmHg 99%
    12:00 +1°C° 0.2 mm 3 mps 748 mmHg 99%
    13:00 +2°C° 0.2 mm 2 mps 748 mmHg 99%
    14:00 +2°C° 0.2 mm 2 mps 748 mmHg 99%
    15:00 +2°C° 0.1 mm 2 mps 748 mmHg 99%
    16:00 +2°C° 0.1 mm 2 mps 747 mmHg 98%
    17:00 +1°C° 0.1 mm 2 mps 747 mmHg 98%
    18:00 +1°C° 0.2 mm 2 mps 748 mmHg 98%
    19:00 +1°C° 0.2 mm 2 mps 748 mmHg 97%
    20:00 0°C° 0.2 mm 3 mps 748 mmHg 97%
    21:00 0°C° 0.2 mm 3 mps 748 mmHg 97%
    22:00 0°C° 0.2 mm 3 mps 748 mmHg 96%
    23:00 0°C° 0.2 mm 3 mps 748 mmHg 96%

    19 November, Monday

    Time Temperature Precipitation Wind Pressure Humidity
    00:00 0°C° 0.2 mm 3 mps 749 mmHg 96%
    01:00 0°C° 0.2 mm 3 mps 749 mmHg 96%
    02:00 0°C° 0.2 mm 3 mps 749 mmHg 95%
    03:00 0°C° 0.1 mm 3 mps 749 mmHg 95%
    04:00 0°C° 0.1 mm 3 mps 749 mmHg 95%
    05:00 0°C° 0.1 mm 3 mps 749 mmHg 95%
    06:00 0°C° 0.1 mm 3 mps 750 mmHg 95%
    07:00 0°C° 0.1 mm 3 mps 750 mmHg 95%
    08:00 0°C° 0.1 mm 3 mps 750 mmHg 95%
    09:00 0°C° 0.1 mm 3 mps 751 mmHg 95%
    10:00 0°C° 0.1 mm 3 mps 751 mmHg 95%
    11:00 0°C° 0.1 mm 3 mps 751 mmHg 95%
    12:00 0°C° 0.1 mm 3 mps 752 mmHg 95%
    13:00 0°C° 0.1 mm 3 mps 752 mmHg 95%
    14:00 0°C° 0.1 mm 3 mps 752 mmHg 94%
    15:00 0°C° 0 mm 3 mps 752 mmHg 94%
    16:00 0°C° 0 mm 3 mps 753 mmHg 94%
    17:00 -1°C° 0 mm 3 mps 753 mmHg 94%
    18:00 -1°C° 0 mm 3 mps 753 mmHg 94%
    19:00 -1°C° 0 mm 3 mps 753 mmHg 94%
    20:00 -2°C° 0 mm 4 mps 754 mmHg 93%
    21:00 -2°C° 0 mm 3 mps 754 mmHg 92%
    22:00 -2°C° 0 mm 3 mps 754 mmHg 91%
    23:00 -4°C° 0 mm 3 mps 755 mmHg 90%

    20 November, Tuesday

    Time Temperature Precipitation Wind Pressure Humidity
    00:00 -4°C° 0 mm 3 mps 755 mmHg 89%
    01:00 -5°C° 0 mm 3 mps 755 mmHg 88%
    02:00 -5°C° 0 mm 3 mps 755 mmHg 87%
    03:00 -5°C° 0 mm 4 mps 755 mmHg 87%
    04:00 -5°C° 0 mm 4 mps 755 mmHg 88%
    05:00 -4°C° 0 mm 4 mps 755 mmHg 88%
    06:00 -4°C° 0.1 mm 4 mps 755 mmHg 89%
    07:00 -4°C° 0.1 mm 4 mps 755 mmHg 89%
    08:00 -4°C° 0.1 mm 4 mps 755 mmHg 90%
    09:00 -3°C° 0 mm 4 mps 755 mmHg 87%
    10:00 -3°C° 0 mm 4 mps 755 mmHg 85%
    11:00 -2°C° 0 mm 4 mps 755 mmHg 83%
    12:00 -2°C° 0 mm 4 mps 754 mmHg 81%
    13:00 -2°C° 0 mm 4 mps 754 mmHg 79%
    14:00 -2°C° 0 mm 4 mps 754 mmHg 77%
    15:00 -3°C° 0 mm 4 mps 754 mmHg 78%
    16:00 -3°C° 0 mm 4 mps 754 mmHg 80%
    17:00 -4°C° 0 mm 3 mps 753 mmHg 81%
    18:00 -4°C° 0 mm 3 mps 753 mmHg 83%
    19:00 -4°C° 0 mm 3 mps 753 mmHg 86%
    20:00 -4°C° 0 mm 3 mps 753 mmHg 88%
    21:00 -4°C° 0 mm 3 mps 753 mmHg 89%
    22:00 -4°C° 0 mm 3 mps 753 mmHg 91%
    23:00 -2°C° 0 mm 3 mps 753 mmHg 92%

    21 November, Wednesday

    Time Temperature Precipitation Wind Pressure Humidity
    00:00 -2°C° 0 mm 3 mps 753 mmHg 92%
    01:00 -2°C° 0 mm 3 mps 752 mmHg 92%
    02:00 -3°C° 0 mm 4 mps 752 mmHg 92%
    03:00 -4°C° 0 mm 3 mps 752 mmHg 92%
    04:00 -4°C° 0 mm 3 mps 751 mmHg 92%
    05:00 -5°C° 0 mm 3 mps 751 mmHg 92%
    06:00 -5°C° 0 mm 4 mps 751 mmHg 91%
    07:00 -5°C° 0 mm 4 mps 751 mmHg 90%
    08:00 -5°C° 0 mm 4 mps 750 mmHg 89%
    09:00 -4°C° 0 mm 4 mps 750 mmHg 87%
    10:00 -5°C° 0 mm 5 mps 750 mmHg 85%
    11:00 -4°C° 0 mm 5 mps 750 mmHg 82%
    12:00 -4°C° 0 mm 5 mps 749 mmHg 82%
    13:00 -4°C° 0 mm 5 mps 749 mmHg 82%
    14:00 -4°C° 0 mm 6 mps 748 mmHg 81%
    15:00 -4°C° 0 mm 6 mps 748 mmHg 82%
    16:00 -4°C° 0 mm 6 mps 748 mmHg 83%
    17:00 -4°C° 0 mm 6 mps 747 mmHg 84%
    18:00 -5°C° 0 mm 6 mps 747 mmHg 84%
    19:00 -5°C° 0 mm 6 mps 747 mmHg 84%
    20:00 -5°C° 0 mm 6 mps 747 mmHg 83%
    21:00 -5°C° 0 mm 6 mps 746 mmHg 83%
    22:00 -5°C° 0 mm 6 mps 746 mmHg 82%
    23:00 -5°C° 0 mm 6 mps 746 mmHg 81%
    Show more